Starlink 3299

operational
NORAD ID: 50831 Int'l Des: 2022-001 Owner: SPXS Country: US Constellation: starlink
LEOCIRCULAR

About Starlink 3299

Description loading...

Live Position

Loading 3D Globe...

Upcoming Passes

Altitude History

Altitude vs Time

uPlot chart will show altitude changes over time

Two-Line Element Set

1 50831U 22001AE 25352.25320635 -.00000423 00000-0 -84898-5 0 9998
2 50831 53.2162 174.7693 0001386 90.4670 269.6481 15.08839454218115
Epoch: Dec 18, 2025 • Age: 10 hours

Current Status

Altitude 542.5 km
Velocity 7.59 km/s
Sub-Earth Point -9.42°S, 25.46°E
Launch Date Jan 6, 2022
Age 3.9 years
Type internet

Technical Details

Classification Payload
Mass 297.00 kg
Dry Mass 275.00 kg
Total Mass 297.00 kg
Length 0.20 m
Diameter 2.80 m
Span 9.00 m
Shape Box + pan
Manufacturer SPXS
Bus Type Starlink
Phase Status In Orbit
Owner/State SPXS/US

Large Constellations

Loading constellations...